Tracking 28052 objects as of 21-Sep-2023
HD Live streaming from Space Station
objects crossing your sky now

STARLINK-2511

Track STARLINK-2511 now!
10-day predictions
STARLINK-2511 is classified as:


NORAD ID: 48332
Int'l Code: 2021-036BJ
Perigee: 553.5 km
Apogee: 555.4 km
Inclination: 53.1 °
Period: 95.6 minutes
Semi major axis: 6925 km
RCS: Unknown
Launch date: April 29, 2021
Source: United States (US)
Launch site: AIR FORCE EASTERN TEST RANGE (AFETR)
Your satellite tracking list
Your tracking list is empty




NASA's NSSDC Master Catalog

Two Line Element Set (TLE):
1 48332U 21036BJ  23264.15026820  .00000249  00000-0  35638-4 0  9997
2 48332  53.0538 184.2935 0001369  85.2013 274.9132 15.06376680132899
Source of the keplerian elements: AFSPC